FW0246 Weather Reports


time (UTC)temp
C
wind
direction
speed
KPH
gust
KPH
rain 1hr
cm
rain 24hr
cm
rain mn
cm
humidity
%
barometer
mb
20260507092704 11 262 3.2 9.7 0.00 0.00 0.00 80 1015.3
20260507090903 11 269 0.0 4.8 0.00 0.00 0.00 81 1015.2
20260507085405 11 269 0.0 3.2 0.00 0.00 0.00 82 1015.1
20260507084505 11 277 1.6 9.7 0.00 0.00 0.00 81 1015.1
20260507083818 11 289 0.0 4.8 0.00 0.00 0.00 82 1015.1
20260507082705 11 279 1.6 4.8 0.00 0.00 0.00 82 1015.0
20260507082016 11 275 1.6 4.8 0.00 0.00 0.00 83 1015.0
20260507080905 10 275 1.6 6.4 0.00 0.00 0.00 83 1014.9
20260507080005 10 307 3.2 9.7 0.00 0.00 0.00 84 1014.9
20260507075405 10 282 1.6 9.7 0.00 0.00 0.00 84 1014.8
20260507074503 10 31 1.6 4.8 0.00 0.00 0.00 85 1014.8
20260507073605 10 36 3.2 6.4 0.00 0.00 0.00 84 1014.7
20260507072703 10 56 1.6 6.4 0.00 0.00 0.00 87 1014.5
20260507071805 9 63 1.6 8.0 0.00 0.00 0.00 86 1014.4
20260507070904 9 266 1.6 4.8 0.00 0.00 0.00 87 1014.5
20260507070010 9 336 1.6 6.4 0.00 0.00 0.00 87 1014.4
20260507065403 9 10 1.6 4.8 0.00 0.00 0.00 89 1014.4
20260507064717 8 48 1.6 3.2 0.00 0.00 0.00 89 1014.4
20260507063817 8 28 3.2 6.4 0.00 0.00 0.00 88 1014.4
20260507062703 8 47 1.6 8.0 0.00 0.00 0.00 89 1014.2
20260507061803 8 33 3.2 4.8 0.00 0.03 0.00 89 1014.1
20260507061119 8 21 3.2 9.7 0.00 0.03 0.00 89 1014.1
20260507055403 8 0 0.0 0.0 0.00 0.03 0.00 92 1014.0
20260507054503 8 0 0.0 0.0 0.00 0.03 0.00 92 1013.9
20260507053603 8 0 0.0 0.0 0.00 0.03 0.00 93 1013.8
20260507052703 8 0 0.0 0.0 0.00 0.03 0.00 93 1013.7
20260507042703 8 0 0.0 0.0 0.00 0.03 0.00 93 1013.0
20260507040903 7 0 0.0 0.0 0.00 0.03 0.00 93 1012.9
20260507030003 8 239 1.6 4.8 0.00 0.05 0.00 93 1012.4
20260507022703 8 279 0.0 3.2 0.00 0.05 0.00 93 1012.3
20260507022018 8 308 0.0 4.8 0.00 0.05 0.00 93 1012.2
20260507010003 8 51 0.0 1.6 0.00 0.10 0.00 94 1012.0
20260507004719 8 51 0.0 1.6 0.00 0.10 0.00 94 1011.9
20260507003603 8 0 0.0 0.0 0.00 0.10 0.00 94 1011.9
20260507002703 8 51 0.0 1.6 0.00 0.10 0.00 94 1011.9
20260507001803 8 51 0.0 1.6 0.00 0.15 0.00 93 1011.8
20260507000903 8 0 0.0 0.0 0.00 0.15 0.00 93 1011.8
20260507000003 8 51 0.0 1.6 0.00 0.15 0.00 93 1011.7
20260506235403 8 51 0.0 1.6 0.00 0.15 0.00 92 1011.7
20260506234719 8 51 0.0 3.2 0.00 0.15 0.00 92 1011.7
20260506233603 8 51 0.0 1.6 0.00 0.15 0.00 92 1011.7
20260506232703 8 0 0.0 0.0 0.00 0.15 0.00 92 1011.7
20260506231803 8 51 0.0 1.6 0.00 0.15 0.00 92 1011.7
20260506231116 8 51 0.0 1.6 0.00 0.15 0.00 92 1011.7
20260506230003 8 0 0.0 0.0 0.00 0.15 0.00 92 1011.8
20260506225619 8 0 0.0 0.0 0.00 0.15 0.00 92 1011.8
20260506224504 8 0 0.0 0.0 0.00 0.15 0.00 92 1011.7
20260506223603 8 0 0.0 0.0 0.00 0.15 0.00 91 1011.7
20260506222703 8 51 0.0 1.6 0.00 0.15 0.00 91 1011.7
20260506221803 8 51 0.0 1.6 0.00 0.15 0.00 92 1011.6
20260506220903 8 0 0.0 0.0 0.00 0.15 0.00 91 1011.5
20260506220003 8 51 0.0 1.6 0.00 0.20 0.00 91 1011.3
20260506215619 8 51 0.0 1.6 0.00 0.23 0.20 91 1011.2
20260506214503 8 51 0.0 1.6 0.00 0.23 0.20 90 1011.0
20260506213603 8 51 0.0 1.6 0.00 0.23 0.20 90 1010.9
20260506212703 8 51 0.0 1.6 0.00 0.23 0.20 90 1010.8
20260506211803 8 51 0.0 1.6 0.00 0.23 0.20 89 1010.7
20260506211116 8 51 0.0 4.8 0.00 0.25 0.20 89 1010.7
20260506210219 8 51 0.0 3.2 0.00 0.25 0.20 89 1010.7
20260506205618 8 51 0.0 1.6 0.00 0.25 0.20 89 1010.7
20260506204503 8 51 1.6 4.8 0.00 0.28 0.20 89 1010.7
20260506203817 8 56 1.6 6.4 0.00 0.30 0.20 89 1010.6
20260506202703 8 36 1.6 4.8 0.00 0.30 0.20 89 1010.5
20260506201803 8 35 1.6 4.8 0.00 0.30 0.20 90 1010.7
20260506200903 8 34 0.0 1.6 0.00 0.33 0.20 91 1010.7
20260506200219 9 0 0.0 0.0 0.00 0.33 0.20 90 1010.5
20260506195403 9 34 0.0 3.2 0.00 0.33 0.20 90 1010.5
20260506194503 9 34 0.0 3.2 0.00 0.33 0.20 89 1010.4
20260506193603 9 34 0.0 3.2 0.00 0.33 0.20 89 1010.2
20260506192704 9 34 0.0 1.6 0.00 0.33 0.20 88 1010.1
20260506192019 9 34 0.0 1.6 0.00 0.33 0.20 88 1009.9
20260506190903 9 33 1.6 4.8 0.00 0.36 0.20 87 1009.7
20260506190003 9 65 1.6 6.4 0.00 0.36 0.20 87 1009.6
20260506185403 9 86 1.6 6.4 0.00 0.36 0.20 87 1009.5
20260506184503 9 22 1.6 9.7 0.00 0.38 0.20 87 1009.3
20260506183604 9 49 1.6 9.7 0.00 0.38 0.20 86 1009.3
20260506182703 10 92 1.6 6.4 0.00 0.38 0.20 86 1009.1
20260506182019 10 68 3.2 11.3 0.00 0.38 0.20 86 1009.1
20260506180903 10 75 3.2 11.3 0.00 0.41 0.20 85 1008.8
20260506180004 10 64 3.2 8.0 0.00 0.41 0.20 85 1008.7
20260506175617 10 66 3.2 8.0 0.00 0.41 0.20 85 1008.8
20260506174503 10 52 1.6 4.8 0.00 0.41 0.20 84 1008.8
20260506173603 10 51 3.2 11.3 0.00 0.43 0.20 84 1008.8
20260506172920 10 65 3.2 6.4 0.00 0.43 0.20 84 1008.7
20260506171803 10 123 1.6 3.2 0.00 0.46 0.20 85 1008.8
20260506170903 10 163 1.6 8.0 0.00 0.48 0.20 84 1008.6
20260506170217 10 51 3.2 9.7 0.00 0.51 0.20 84 1008.6
20260506165403 11 77 3.2 9.7 0.00 0.51 0.20 84 1008.6
20260506164503 11 83 1.6 4.8 0.00 0.51 0.20 85 1008.6
20260506163603 11 97 1.6 6.4 0.00 0.51 0.20 85 1008.6
20260506162703 11 40 3.2 8.0 0.00 0.53 0.20 84 1008.6
20260506161804 11 358 4.8 12.9 0.00 0.53 0.20 83 1008.6
20260506160903 11 31 3.2 12.9 0.00 0.53 0.20 83 1008.5
20260506160003 11 25 1.6 8.0 0.00 0.53 0.20 85 1008.4
20260506155403 11 266 1.6 6.4 0.00 0.53 0.20 87 1008.4
20260506154504 11 62 3.2 12.9 0.00 0.53 0.20 87 1008.3
20260506153603 11 39 3.2 12.9 0.00 0.53 0.20 86 1008.4
20260506152919 11 4 1.6 11.3 0.00 0.53 0.20 86 1008.2
20260506151803 11 31 3.2 8.0 0.00 0.56 0.20 86 1008.2
20260506150903 11 44 3.2 16.1 0.00 0.56 0.20 86 1008.1
20260506150217 11 47 3.2 16.1 0.00 0.58 0.20 85 1008.0
20260506145403 11 50 1.6 8.0 0.00 0.58 0.20 86 1008.0
20260506144503 11 46 3.2 6.4 0.00 0.58 0.20 87 1008.1
20260506143603 11 39 3.2 12.9 0.00 0.61 0.20 86 1008.0
20260506142703 11 227 3.2 6.4 0.00 0.61 0.20 88 1008.0
20260506141803 11 240 1.6 6.4 0.00 0.61 0.20 88 1008.1
20260506140903 11 249 3.2 12.9 0.00 0.64 0.20 88 1008.1
20260506140004 11 258 3.2 14.5 0.00 0.69 0.20 88 1007.9
20260506135403 11 256 1.6 9.7 0.00 0.71 0.20 89 1008.0
20260506134504 11 257 3.2 8.0 0.00 0.71 0.20 89 1008.1
20260506133603 11 236 1.6 8.0 0.00 0.79 0.20 89 1008.0
20260506132703 11 234 3.2 12.9 0.00 0.81 0.20 88 1007.9
20260506132017 11 234 3.2 11.3 0.00 0.84 0.20 88 1007.8
20260506130904 11 238 1.6 6.4 0.00 0.86 0.20 89 1007.8
20260506130003 11 262 1.6 6.4 0.00 0.86 0.20 88 1007.8
20260506125403 11 243 3.2 8.0 0.00 0.89 0.20 88 1007.7
20260506124503 12 246 3.2 8.0 0.00 0.99 0.20 87 1007.6
20260506123603 12 242 1.6 8.0 0.00 1.09 0.20 88 1007.5
20260506122703 12 248 1.6 9.7 0.00 1.09 0.20 88 1007.5
20260506121803 12 274 1.6 6.4 0.00 1.09 0.20 88 1007.4
20260506120903 12 223 1.6 9.7 0.00 1.09 0.20 87 1007.3
20260506120003 12 99 1.6 6.4 0.00 1.09 0.20 88 1007.3
20260506115403 12 243 1.6 6.4 0.00 1.09 0.20 88 1007.2
20260506114503 12 263 1.6 9.7 0.00 1.09 0.20 89 1007.2
20260506113603 12 299 1.6 6.4 0.00 1.09 0.20 88 1007.2
20260506112703 11 220 1.6 6.4 0.00 1.09 0.20 88 1007.1
20260506111803 11 86 1.6 4.8 0.00 1.09 0.20 89 1007.2
20260506110903 11 80 0.0 3.2 0.00 1.09 0.20 90 1007.2
20260506110003 11 63 1.6 4.8 0.00 1.09 0.20 90 1007.0
20260506105403 11 37 3.2 6.4 0.00 1.09 0.20 89 1006.9
20260506104503 11 302 1.6 6.4 0.00 1.09 0.20 88 1007.0
20260506103603 11 287 1.6 9.7 0.00 1.09 0.20 88 1006.9
20260506102917 12 14 1.6 9.7 0.00 1.09 0.20 90 1006.9
20260506102016 11 57 3.2 14.5 0.00 1.09 0.20 91 1006.8
20260506100903 11 70 3.2 6.4 0.00 1.09 0.20 92 1006.7
20260506100003 11 331 1.6 6.4 0.00 1.09 0.20 92 1006.8
20260506095403 11 248 1.6 12.9 0.00 1.09 0.20 92 1006.8
20260506094503 11 235 3.2 8.0 0.00 1.09 0.20 92 1006.7